Location: Drocourt
(49.0571°N, 1.7669°E)
Time: 03:29:36
(UTC+00:00)

Transit 4A - Pass Details

Date: 18 April 2024
Orbit: 871 x 971 km, 66.8° (Epoch: 19 May)

Event Time Altitude Azimuth Distance (km) Brightness Sun altitude
Rises 18:25:19 0° 317° (NW) 3,484 12.0 3.1°
Reaches altitude 10° 18:28:57 10° 339° (NNW) 2,535 10.8 2.5°
Maximum altitude 18:32:22 16° 15° (NNE) 2,154 9.9 2.0°
Drops below altitude 10° 18:35:46 10° 51° (NE) 2,528 9.9 1.4°
Sets 18:39:23 0° 74° (ENE) 3,469 10.4 0.9°
